FW8334 Weather Reports


Display with metric or nautical units.
time (UTC)temp
F
wind
direction
speed
MPH
gust
MPH
rain 1hr
in
rain 24hr
in
rain mn
in
humidity
%
barometer
mb
20260831193053 81 292 3.0 9.0 0.00 0.00 0.00 70 1012.9
20260831191553 81 246 2.0 8.0 0.00 0.00 0.00 69 1013.0
20260831190049 80 253 2.0 8.0 0.00 0.00 0.00 71 1013.0
20260831184613 80 269 2.0 9.0 0.00 0.00 0.00 70 1013.0
20260831183100 80 221 4.0 8.0 0.00 0.00 0.00 71 1013.0
20260831181550 79 239 3.0 8.0 0.00 0.00 0.00 72 1012.9
20260831180050 80 271 3.0 7.0 0.00 0.00 0.00 72 1012.9
20260831174600 79 277 3.0 7.0 0.00 0.00 0.00 72 1012.9
20260831173100 79 278 2.0 7.0 0.00 0.00 0.00 73 1012.7
20260831171558 79 204 1.0 6.0 0.00 0.00 0.00 73 1012.5
20260831170057 77 0 0.0 5.0 0.00 0.00 0.00 76 1012.6
20260831164553 76 287 0.0 5.0 0.00 0.00 0.00 79 1012.8
20260831163051 75 287 0.0 3.0 0.00 0.00 0.00 79 1012.4
20260831161554 73 0 2.0 5.0 0.00 0.00 0.00 81 1012.5
20260831160053 73 82 0.0 2.0 0.00 0.00 0.00 83 1012.5
20260831154610 72 315 0.0 3.0 0.00 0.00 0.00 84 1012.5
20260831153059 71 253 0.0 3.0 0.00 0.00 0.00 85 1012.6
20260831151559 71 0 0.0 2.0 0.00 0.00 0.00 86 1012.4
20260831150051 70 0 0.0 2.0 0.00 0.00 0.00 86 1012.4
20260831144600 70 0 0.0 0.0 0.00 0.00 0.00 90 1012.3
20260831143047 69 0 0.0 0.0 0.00 0.00 0.00 92 1012.3
20260831141552 0 0.0 0.0 0.00 0.00 0.00 1012.1
20260831140049 0 0.0 0.0 0.00 0.00 0.00 1011.8
20260831134557 67 0.0 0.0 0.00 0.00 0.00 92 1011.6
20260831133048 67 0 0.0 1.0 0.00 0.00 0.00 91 1011.6
20260831131552 67 0 0.0 1.0 0.00 0.00 0.00 91 1011.4
20260831130054 68 0 0.0 0.0 0.00 0.00 0.00 90 1011.3
20260831124547 69 0 0.0 0.0 0.00 0.00 0.00 89 1011.3
20260831123053 69 0 0.0 0.0 0.00 0.00 0.00 89 1011.3
20260831121550 70 0 0.0 2.0 0.00 0.00 0.00 88 1011.2
20260831120059 70 0 0.0 2.0 0.00 0.00 0.00 88 1011.3
20260831114549 70 272 0.0 2.0 0.00 0.00 0.00 89 1011.3
20260831113052 0 0.0 0.0 0.00 0.00 0.00 1011.3
20260831111607 0 0.0 0.0 0.00 0.00 0.00 1011.3
20260831110130 0 0.0 0.0 0.00 0.00 0.00 1011.4
20260831104547 0 0.0 0.0 0.00 0.00 0.00 1011.5
20260831103043 0 0.0 0.0 0.00 0.00 0.00 1011.5
20260831101552 0 0.0 0.0 0.00 0.00 0.00 1011.4
20260831100054 0 0.0 0.0 0.00 0.00 0.00 1011.5
20260831094543 0 0.0 0.0 0.00 0.00 0.00 1011.5
20260831093055 0 0.0 0.0 0.00 0.00 0.00 1011.5
20260831091552 0 0.0 0.0 0.00 0.00 0.00 1011.6
20260831090056 0 0.0 0.0 0.00 0.00 0.00 1011.5
20260831084557 0 0.0 0.0 0.00 0.00 0.00 1011.5
20260831083050 0 0.0 0.0 0.00 0.00 0.00 1011.5
20260831081555 0 0.0 0.0 0.00 0.00 0.00 1011.5
20260831080053 0 0.0 0.0 0.00 0.00 0.00 1011.7
20260831074548 0 0.0 0.0 0.00 0.00 0.00 1011.6
20260831073116 0 0.0 0.0 0.00 0.00 0.00 1011.6
20260831071552 0 0.0 0.0 0.00 0.00 0.00 1011.7
20260831070050 0 0.0 0.0 0.00 0.00 0.00 1011.7
20260831064559 0 0.0 0.0 0.00 0.00 0.00 1011.6
20260831063056 0 0.0 0.0 0.00 0.00 0.00 1011.5
20260831061554 0 0.0 0.0 0.00 0.00 0.00 1011.3
20260831060110 0 0.0 0.0 0.00 0.00 0.00 1011.3
20260831054551 0 0.0 0.0 0.00 0.00 0.00 1011.4
20260831053049 0 0.0 0.0 0.00 0.00 0.00 1011.5
20260831051554 0 0.0 0.0 0.00 0.00 0.00 1011.5
20260831050139 0 0.0 0.0 0.00 0.00 0.00 1011.6
20260831044550 0 0.0 0.0 0.00 0.00 0.00 1011.4
20260831043044 0 0.0 0.0 0.00 0.00 0.00 1011.3
20260831041555 70 0 0.0 0.0 0.00 0.00 0.00 90 1011.1
20260831040057 70 0 0.0 1.0 0.00 0.00 0.00 90 1011.2
20260831034551 71 0 0.0 0.0 0.00 0.00 0.00 90 1010.9
20260831033052 71 0 0.0 0.0 0.00 0.00 0.00 89 1010.8
20260831031543 71 0 0.0 1.0 0.00 0.00 0.00 88 1010.6
20260831030058 72 0 0.0 2.0 0.00 0.00 0.00 88 1010.5
20260831024554 72 0 0.0 2.0 0.00 0.00 0.00 87 1010.5
20260831023049 73 0 0.0 3.0 0.00 0.00 0.00 86 1010.4
20260831021543 73 265 1.0 3.0 0.00 0.00 0.00 85 1010.2
20260831020055 74 0 0.0 3.0 0.00 0.00 0.00 84 1010.2
20260831014554 75 250 1.0 4.0 0.00 0.00 0.00 82 1010.1
20260831013052 76 242 2.0 6.0 0.00 0.00 0.00 79 1010.1
20260831011547 77 0 2.0 4.0 0.00 0.00 0.00 77 1010.0
20260831010100 78 325 1.0 4.0 0.00 0.00 0.00 76 1010.0
20260831004550 78 274 2.0 6.0 0.00 0.00 0.00 73 1010.2
20260831003054 79 277 1.0 7.0 0.00 0.00 0.00 72 1010.1
20260831001550 79 305 2.0 7.0 0.00 0.00 0.00 72 1010.1
20260831000058 81 267 2.0 6.0 0.00 0.00 0.00 70 1010.1
20260830234550 81 268 2.0 7.0 0.00 0.00 0.00 69 1010.1
20260830233102 81 121 1.0 8.0 0.00 0.00 0.00 71 1010.1
20260830231550 81 277 3.0 7.0 0.00 0.00 0.00 70 1010.2
20260830230049 81 298 4.0 9.0 0.00 0.00 0.00 69 1010.3
20260830224553 82 292 3.0 10.0 0.00 0.00 0.00 67 1010.3
20260830223050 82 265 3.0 9.0 0.00 0.00 0.00 67 1010.6
20260830221551 83 221 4.0 9.0 0.00 0.00 0.00 65 1010.6
20260830214549 83 290 4.0 9.0 0.00 0.00 0.00 64 1010.8
20260830213056 84 251 3.0 8.0 0.00 0.00 0.00 63 1010.9
20260830211553 84 237 3.0 10.0 0.00 0.00 0.00 63 1011.2
20260830210049 84 333 4.0 10.0 0.00 0.00 0.00 63 1011.2
20260830204556 83 332 2.0 9.0 0.00 0.00 0.00 65 1011.3
20260830203053 83 284 4.0 10.0 0.00 0.00 0.00 65 1011.3
20260830201558 85 301 2.0 9.0 0.00 0.00 0.00 69 1011.3
20260830200052 83 293 3.0 8.0 0.00 0.00 0.00 69 1011.3
20260830194550 83 277 2.0 8.0 0.00 0.00 0.00 68 1011.3